Weather History for Plattsmouth, NE

Change the Weather History Date:

Wednesday, May 22, 2013

  Actual Average (KOFF) Record (KOFF)
Temperature  
Mean Temperature 56 °F -  
Max Temperature 61 °F 72 °F 91 °F (2000)
Min Temperature 51 °F 53 °F 46 °F (2001)
Degree Days  
Heating Degree Days 9    
Growing Degree Days 6 (Base 50)    
Moisture  
Dew Point 49 °F    
Average Humidity 78    
Maximum Humidity 91    
Minimum Humidity 64    
Precipitation  
Precipitation 0.00 in - - ()
Sea Level Pressure  
Sea Level Pressure 29.82 in    
Wind  
Wind Speed 12 mph (WNW)    
Max Wind Speed 20 mph    
Max Gust Speed 25 mph    
Visibility 10 miles    
Events      
Averages and records for this station are not official NWS values.
T = Trace of Precipitation, MM = Missing Value Source: NWS Daily Summary

Daily Weather History Graph

Daily Weather History Graph

Search for Another Location

Airport:

Trip Planner

Search our weather history database for the weather conditions in past years. The results will help you decide how hot, cold, wet, or windy it might be!

Date:

Astronomy

May. 22, 2013 Rise Set
Actual Time 5:59 AM CDT 8:41 PM CDT
Civil Twilight 5:27 AM CDT 9:13 PM CDT
Nautical Twilight 4:47 AM CDT 9:53 PM CDT
Astronomical Twilight 4:02 AM CDT 10:39 PM CDT
Moon 6:04 PM CDT (5/22) 4:05 AM CDT (5/22)
Length of Visible Light 15h 45m
Length of Day
14h 41m
Waxing Gibbous, 91% of the Moon is Illuminated
May 22
Waxing Gibbous
May 24
Full
May 31
Last Quarter
Jun 8
New
Jun 16
First Quarter

Hourly Weather History & Observations

Time (CDT) Temp. Dew Point Humidity Pressure Visibility Wind Dir Wind Speed Gust Speed Precip Events Conditions
12:15 AM 55.4 °F 49.3 °F 80% 29.74 in 10.0 mi NW 6.9 mph - N/A   Overcast
12:35 AM 55.4 °F 49.1 °F 79% 29.74 in 10.0 mi NW 8.1 mph 16.1 mph N/A   Overcast
12:55 AM 55.4 °F 49.6 °F 81% 29.74 in 10.0 mi WNW 8.1 mph - N/A   Overcast
1:15 AM 54.9 °F 49.5 °F 82% 29.74 in 10.0 mi WNW 10.4 mph 18.4 mph N/A   Overcast
1:35 AM 54.5 °F 49.8 °F 84% 29.74 in 10.0 mi West 6.9 mph - N/A   Overcast
1:55 AM 54.3 °F 49.3 °F 83% 29.75 in 10.0 mi West 9.2 mph - N/A   Overcast
2:15 AM 54.1 °F 49.3 °F 84% 29.74 in 10.0 mi West 8.1 mph - N/A   Overcast
2:35 AM 54.0 °F 48.9 °F 83% 29.75 in 10.0 mi WNW 13.8 mph 18.4 mph N/A   Overcast
2:55 AM 53.6 °F 48.4 °F 82% 29.75 in 10.0 mi WNW 10.4 mph 17.3 mph N/A   Overcast
3:15 AM 53.2 °F 48.6 °F 84% 29.75 in 10.0 mi WNW 10.4 mph - N/A   Overcast
3:35 AM 53.2 °F 48.9 °F 85% 29.75 in 10.0 mi West 10.4 mph 19.6 mph N/A   Overcast
3:55 AM 52.2 °F 49.6 °F 91% 29.74 in 10.0 mi West 8.1 mph - N/A   Overcast
4:15 AM 52.9 °F 49.1 °F 87% 29.74 in 10.0 mi West 12.7 mph - N/A   Overcast
4:35 AM 52.7 °F 49.1 °F 88% 29.73 in 10.0 mi WNW 9.2 mph - N/A   Overcast
4:55 AM 52.7 °F 48.7 °F 86% 29.73 in 10.0 mi WNW 13.8 mph - N/A   Overcast
5:15 AM 52.7 °F 48.7 °F 86% 29.73 in 10.0 mi WNW 11.5 mph - N/A   Overcast
5:35 AM 52.7 °F 48.7 °F 86% 29.73 in 10.0 mi WNW 15.0 mph 24.2 mph N/A   Overcast
5:55 AM 52.3 °F 48.7 °F 88% 29.73 in 10.0 mi WNW 11.5 mph 21.9 mph N/A   Overcast
6:15 AM 52.2 °F 48.7 °F 88% 29.73 in 10.0 mi WNW 13.8 mph 21.9 mph N/A   Overcast
6:35 AM 51.6 °F 49.1 °F 91% 29.74 in 4.0 mi WNW 10.4 mph - N/A   Overcast
6:55 AM 51.8 °F 49.1 °F 90% 29.74 in 10.0 mi WNW 16.1 mph 19.6 mph N/A   Overcast
7:15 AM 52.3 °F 49.1 °F 89% 29.74 in 10.0 mi WNW 15.0 mph 19.6 mph N/A   Overcast
7:35 AM 52.7 °F 49.1 °F 88% 29.75 in 10.0 mi WNW 17.3 mph 20.7 mph N/A   Overcast
7:55 AM 53.2 °F 49.1 °F 86% 29.75 in 10.0 mi WNW 16.1 mph 19.6 mph N/A   Overcast
8:15 AM 54.3 °F 49.3 °F 83% 29.76 in 10.0 mi WNW 15.0 mph 19.6 mph N/A   Overcast
8:35 AM 54.7 °F 49.1 °F 81% 29.77 in 10.0 mi WNW 15.0 mph 21.9 mph N/A   Overcast
8:55 AM 55.0 °F 48.9 °F 80% 29.77 in 10.0 mi WNW 15.0 mph 20.7 mph N/A   Overcast
9:15 AM 55.2 °F 48.7 °F 79% 29.78 in 10.0 mi WNW 12.7 mph 23.0 mph N/A   Overcast
9:35 AM 55.4 °F 48.4 °F 77% 29.79 in 10.0 mi WNW 19.6 mph 25.3 mph N/A   Overcast
9:55 AM 55.6 °F 48.7 °F 78% 29.79 in 10.0 mi WNW 18.4 mph 23.0 mph N/A   Overcast
10:15 AM 56.7 °F 48.9 °F 75% 29.79 in 10.0 mi WNW 15.0 mph - N/A   Overcast
10:35 AM 56.7 °F 49.1 °F 76% 29.80 in 10.0 mi WNW 17.3 mph 23.0 mph N/A   Overcast
10:55 AM 56.7 °F 48.7 °F 75% 29.80 in 10.0 mi WNW 15.0 mph 24.2 mph N/A   Overcast
11:15 AM 57.4 °F 49.5 °F 75% 29.81 in 10.0 mi WNW 16.1 mph 23.0 mph N/A   Overcast
11:35 AM 57.4 °F 49.3 °F 74% 29.82 in 10.0 mi WNW 19.6 mph 23.0 mph N/A   Overcast
11:55 AM 57.6 °F 50.2 °F 76% 29.83 in 10.0 mi WNW 12.7 mph 21.9 mph N/A   Overcast
12:15 PM 58.6 °F 49.5 °F 72% 29.83 in 10.0 mi WNW 16.1 mph 25.3 mph N/A   Overcast
12:35 PM 57.9 °F 50.0 °F 75% 29.84 in 10.0 mi West 16.1 mph - N/A   Overcast
12:55 PM 56.7 °F 50.5 °F 80% 29.84 in 7.0 mi WNW 12.7 mph 20.7 mph N/A   Overcast
1:15 PM 56.3 °F 51.1 °F 83% 29.84 in 7.0 mi WNW 16.1 mph 21.9 mph N/A   Overcast
1:35 PM 56.7 °F 52.7 °F 87% 29.84 in 5.0 mi West 16.1 mph - N/A   Overcast
1:55 PM 56.8 °F 51.8 °F 83% 29.84 in 7.0 mi WNW 16.1 mph 24.2 mph N/A   Overcast
2:15 PM 58.6 °F 51.6 °F 77% 29.84 in 10.0 mi West 15.0 mph 23.0 mph N/A   Overcast
2:35 PM 59.5 °F 51.3 °F 74% 29.84 in 10.0 mi West 17.3 mph 21.9 mph N/A   Overcast
2:55 PM 61.0 °F 50.2 °F 68% 29.84 in 10.0 mi NW 17.3 mph 21.9 mph N/A   Overcast
3:15 PM 59.5 °F 49.1 °F 68% 29.84 in 10.0 mi WNW 18.4 mph 24.2 mph N/A   Overcast
3:35 PM 58.6 °F 50.2 °F 73% 29.84 in 10.0 mi NW 18.4 mph 23.0 mph N/A   Overcast
3:55 PM 60.1 °F 49.1 °F 67% 29.84 in 10.0 mi WNW 13.8 mph - N/A   Overcast
4:15 PM 59.4 °F 48.2 °F 67% 29.84 in 10.0 mi WNW 12.7 mph 23.0 mph N/A   Overcast
4:35 PM 59.9 °F 48.6 °F 66% 29.85 in 10.0 mi WNW 15.0 mph - N/A   Overcast
4:55 PM 59.7 °F 48.4 °F 66% 29.85 in 10.0 mi WNW 12.7 mph 20.7 mph N/A   Overcast
5:15 PM 59.9 °F 47.8 °F 64% 29.85 in 10.0 mi NW 12.7 mph - N/A   Overcast
5:35 PM 59.9 °F 48.4 °F 66% 29.86 in 10.0 mi NW 12.7 mph - N/A   Overcast
5:55 PM 59.2 °F 48.6 °F 68% 29.86 in 10.0 mi NW 10.4 mph 18.4 mph N/A   Overcast
6:15 PM 59.5 °F 48.6 °F 67% 29.86 in 10.0 mi NW 11.5 mph - N/A   Overcast
6:35 PM 59.0 °F 48.6 °F 68% 29.87 in 10.0 mi NW 13.8 mph - N/A   Overcast
6:55 PM 58.6 °F 48.4 °F 69% 29.88 in 10.0 mi NW 11.5 mph - N/A   Overcast
7:15 PM 58.5 °F 48.4 °F 69% 29.89 in 10.0 mi NW 12.7 mph - N/A   Overcast
7:35 PM 59.0 °F 48.6 °F 68% 29.89 in 10.0 mi WNW 11.5 mph - N/A   Overcast
7:55 PM 58.6 °F 48.4 °F 69% 29.89 in 10.0 mi NW 10.4 mph - N/A   Overcast
8:15 PM 58.5 °F 48.6 °F 70% 29.90 in 10.0 mi WNW 9.2 mph - N/A   Overcast
8:35 PM 58.1 °F 48.2 °F 70% 29.91 in 10.0 mi NW 11.5 mph - N/A   Overcast
8:55 PM 57.7 °F 47.7 °F 69% 29.92 in 10.0 mi NW 11.5 mph - N/A   Overcast
9:15 PM 57.2 °F 48.2 °F 72% 29.93 in 10.0 mi NW 9.2 mph - N/A   Overcast
9:35 PM 57.2 °F 47.8 °F 71% 29.93 in 10.0 mi NW 9.2 mph - N/A   Overcast
9:55 PM 56.5 °F 48.0 °F 73% 29.94 in 10.0 mi NW 9.2 mph - N/A   Overcast
10:15 PM 56.3 °F 48.2 °F 74% 29.95 in 10.0 mi NW 9.2 mph - N/A   Overcast
10:35 PM 55.8 °F 48.6 °F 77% 29.96 in 10.0 mi NW 9.2 mph - N/A   Overcast
10:55 PM 55.4 °F 49.1 °F 79% 29.96 in 10.0 mi NW 9.2 mph - N/A   Overcast
11:15 PM 55.6 °F 49.1 °F 79% 29.96 in 10.0 mi NW 10.4 mph - N/A   Overcast
11:35 PM 55.0 °F 48.6 °F 79% 29.97 in 10.0 mi NW 11.5 mph - N/A   Overcast
11:55 PM 54.7 °F 49.1 °F 81% 29.97 in 10.0 mi NW 8.1 mph - N/A   Overcast